Location: Dos Palmas
(32.4468°N, 116.8732°W)
Time: 01:34:17
(UTC+00:00)

USA 267 - Pass Details

Date: 20 June 2021
Orbit: 1102 x 1106 km, 123.0° (Epoch: 24 July)

Event Time Altitude Azimuth Distance (km) Brightness Sun altitude
Exits shadow 08:28:26 63° 73° (ENE) 1,213 3.4 -33.3°
Maximum altitude 08:29:00 66° 44° (NE) 1,189 3.4 -33.3°
Drops below altitude 10° 08:35:28 10° 324° (NW) 2,961 5.9 -33.0°
Sets 08:37:58 0° 322° (NW) 3,922 6.6 -32.9°
